EW2776 Paimio FI current weather conditions

sailwx.info

Wind from 109

Air temperature 11.1° C
Dewpoint 10.0° C

Last reported at 2020-Jul-11 04:00 UTC.
Time now 2020-Jul-11 05:01 UTC

Location: N 60°30' E 022°41'.
View on Google Maps.

See reports from other nearby stations

  
Tides and Currents Weather Stations Pressure Air Temp Water Temp Dewpoint Dewpoint Depression Visibility Wind Speed Wind Dir Waves Ship Positions
date/time (UTC)wind fromknots sea level pressurealtimeterstation pressurevisibilityair tempwater tempwave heightnotes
2020-Jul-11 04:00 109 11.1
2020-Jul-11 03:45 109 10.6
2020-Jul-11 03:30 109 10.6
2020-Jul-11 03:15 109 10.0
2020-Jul-11 03:00 109 10.0
2020-Jul-11 02:45 109 10.0
2020-Jul-11 02:30 109 10.0
2020-Jul-11 02:15 109 10.0
2020-Jul-11 02:00 109 10.0
2020-Jul-11 01:45 109 10.0
2020-Jul-11 01:30 109 10.0
2020-Jul-11 01:17 109 10.0
2020-Jul-11 01:15 109 10.0
2020-Jul-11 01:02 109 9.4
2020-Jul-11 00:46 109 9.4
2020-Jul-11 00:31 109 8.9
2020-Jul-11 00:16 109 8.9
2020-Jul-11 00:01 109 8.9
2020-Jul-10 23:46 109 8.9
2020-Jul-10 23:16 109 9.4
2020-Jul-10 23:00 109 9.4
2020-Jul-10 22:46 109 10.0
2020-Jul-10 22:31 109 10.0
2020-Jul-10 22:17 109 10.0
2020-Jul-10 22:01 109 10.6
2020-Jul-10 21:46 109 10.6
2020-Jul-10 21:31 109 10.6
2020-Jul-10 21:16 109 11.1
2020-Jul-10 20:45 109 11.1
2020-Jul-10 20:30 109 11.7
2020-Jul-10 20:15 109 12.2
2020-Jul-10 20:00 109 12.2
2020-Jul-10 19:45 109 12.8
2020-Jul-10 19:30 109 13.3
2020-Jul-10 19:15 109 13.9
2020-Jul-10 19:00 109 15.0
2020-Jul-10 18:46 109 15.6
2020-Jul-10 18:30 109 16.1
2020-Jul-10 18:15 109 16.7
2020-Jul-10 18:00 109 17.2
2020-Jul-10 17:45 109 17.2
2020-Jul-10 17:31 110 17.2
2020-Jul-10 17:15 110 17.2
2020-Jul-10 17:00 109 17.2
2020-Jul-10 16:45 109 17.2
2020-Jul-10 16:30 105 17.2
2020-Jul-10 16:15 105 17.8
2020-Jul-10 16:00 111 17.8
2020-Jul-10 15:45 099 17.8
2020-Jul-10 15:30 094 17.8
2020-Jul-10 15:15 088 18.9
2020-Jul-10 15:00 252 19.4
2020-Jul-10 14:45 252 19.4
2020-Jul-10 14:30 276 19.4
2020-Jul-10 14:15 257 19.4
2020-Jul-10 14:00 257 1 gusting 4 18.9
2020-Jul-10 13:45 275 0 gusting 5 18.9
2020-Jul-10 13:30 202 1 gusting 7 19.4
2020-Jul-10 13:15 266 19.4
2020-Jul-10 13:00 204 18.9
2020-Jul-10 12:45 273 1 gusting 7 18.3
2020-Jul-10 12:30 241 1 gusting 8 18.9
2020-Jul-10 12:15 227 2 gusting 7 18.9
2020-Jul-10 12:00 238 0 gusting 11 18.3
2020-Jul-10 11:45 249 1 gusting 12 18.3
2020-Jul-10 11:32 221 0 gusting 8 18.9
2020-Jul-10 11:16 255 18.9
2020-Jul-10 11:02 180 0 gusting 8 18.9
2020-Jul-10 10:46 258 0 gusting 9 18.3
2020-Jul-10 10:31 194 0 gusting 8 18.3
2020-Jul-10 10:16 272 4 gusting 12 18.3
2020-Jul-10 10:01 213 0 gusting 8 18.3
2020-Jul-10 09:47 265 2 gusting 8 18.3
2020-Jul-10 09:31 234 3 gusting 10 17.8
2020-Jul-10 09:16 263 4 gusting 12 17.8
2020-Jul-10 09:01 248 17.8
2020-Jul-10 08:45 163 2 gusting 6 17.8
2020-Jul-10 08:30 234 0 gusting 8 17.8
2020-Jul-10 08:16 210 1 gusting 6 17.8
2020-Jul-10 08:01 184 1 gusting 9 17.8
2020-Jul-10 07:46 226 17.2
2020-Jul-10 07:31 261 2 gusting 8 17.8
2020-Jul-10 07:16 190 0 gusting 8 17.2
2020-Jul-10 07:01 227 0 gusting 9 17.2
2020-Jul-10 06:46 196 0 gusting 6 16.7
2020-Jul-10 06:31 240 0 gusting 6 16.1
2020-Jul-10 06:15 186 15.6
2020-Jul-10 06:00 200 1 gusting 6 15.6
2020-Jul-10 05:45 278 14.4
2020-Jul-10 05:30 241 13.9
2020-Jul-10 05:16 178 13.3
2020-Jul-10 05:00 159 12.8
2020-Jul-10 04:45 190 12.2
2020-Jul-10 04:30 185 11.1
2020-Jul-10 04:17 185 10.6
2020-Jul-10 04:02 185 10.0
2020-Jul-10 03:47 185 8.9
2020-Jul-10 03:31 185 8.3
2020-Jul-10 03:16 185 7.8
2020-Jul-10 03:00 185 7.8
2020-Jul-10 02:46 185 7.2
2020-Jul-10 02:31 185 6.7
2020-Jul-10 02:16 185 6.1
2020-Jul-10 02:01 185 6.1
2020-Jul-10 01:46 185 5.6
2020-Jul-10 01:30 185 5.6
2020-Jul-10 01:16 185 5.0
2020-Jul-10 01:01 185 5.0
2020-Jul-10 00:46 185 5.0
2020-Jul-10 00:31 185 5.0
2020-Jul-10 00:16 185 5.0
2020-Jul-10 00:01 185 5.6
2020-Jul-09 23:46 185 6.1
2020-Jul-09 23:30 185 5.6
2020-Jul-09 23:15 185 6.1
2020-Jul-09 23:01 185 6.1
2020-Jul-09 22:46 185 6.1
2020-Jul-09 22:30 185 6.1
2020-Jul-09 22:15 185 6.1
2020-Jul-09 22:00 185 6.7
2020-Jul-09 21:46 185 6.7
2020-Jul-09 21:30 185 7.2
2020-Jul-09 21:15 185 7.8
2020-Jul-09 21:00 185 7.8
2020-Jul-09 20:45 185 8.9
2020-Jul-09 20:30 185 9.4
2020-Jul-09 20:15 185 9.4
2020-Jul-09 20:00 185 10.6
2020-Jul-09 19:45 185 11.1
2020-Jul-09 19:30 185 12.2
2020-Jul-09 19:15 185 12.8
2020-Jul-09 19:00 185 13.3
2020-Jul-09 18:45 260 13.3
2020-Jul-09 18:30 227 13.9
2020-Jul-09 18:15 282 13.9
2020-Jul-09 18:00 224 14.4
2020-Jul-09 17:45 277 15.0
2020-Jul-09 17:31 260 0 gusting 6 15.0
2020-Jul-09 17:16 277 15.0
2020-Jul-09 17:02 288 1 gusting 10 15.0
2020-Jul-09 16:46 285 3 gusting 8 15.0
2020-Jul-09 16:31 288 14.4
2020-Jul-09 16:16 295 1 gusting 7 14.4
2020-Jul-09 16:01 235 0 gusting 7 13.9
2020-Jul-09 15:47 294 2 gusting 8 15.0
2020-Jul-09 15:31 258 0 gusting 9 15.0
2020-Jul-09 15:16 274 1 gusting 11 14.4
2020-Jul-09 15:00 300 0 gusting 11 13.3
2020-Jul-09 14:45 293 1 gusting 13 13.3
2020-Jul-09 14:30 290 0 gusting 13 13.3
2020-Jul-09 14:15 301 3 gusting 13 13.9
2020-Jul-09 14:02 270 13.9
2020-Jul-09 13:48 282 1 gusting 8 13.3
2020-Jul-09 13:31 286 0 gusting 14 13.9
2020-Jul-09 13:18 295 1 gusting 11 13.9
2020-Jul-09 13:01 230 0 gusting 6 15.0
2020-Jul-09 12:46 262 15.6
2020-Jul-09 12:31 216 1 gusting 9 15.0
2020-Jul-09 12:17 286 0 gusting 10 14.4
2020-Jul-09 12:01 196 14.4
2020-Jul-09 11:46 270 1 gusting 11 13.9
2020-Jul-09 11:31 267 1 gusting 9 13.9
2020-Jul-09 11:16 285 3 gusting 7 14.4
2020-Jul-09 11:01 240 13.9
2020-Jul-09 10:46 211 13.9
2020-Jul-09 10:31 152 12.8
2020-Jul-09 10:15 246 3 gusting 11 13.3
2020-Jul-09 10:01 277 0 gusting 4 13.3
2020-Jul-09 09:46 249 12.2
2020-Jul-09 09:30 305 12.8
2020-Jul-09 09:15 305 13.9
2020-Jul-09 09:00 236 0 gusting 6 14.4
2020-Jul-09 08:46 236 0 gusting 5 14.4
2020-Jul-09 08:30 250 13.9
2020-Jul-09 08:16 276 0 gusting 3 12.8
2020-Jul-09 08:01 257 11.7
2020-Jul-09 07:47 257 11.1
2020-Jul-09 07:30 292 3 gusting 10 12.8
2020-Jul-09 07:15 252 13.3
2020-Jul-09 07:01 286 13.3
2020-Jul-09 06:45 284 0 gusting 7 13.9
2020-Jul-09 06:30 162 0 gusting 7 13.3
2020-Jul-09 06:15 259 0 gusting 5 13.3
2020-Jul-09 06:00 223 0 gusting 4 12.8
2020-Jul-09 05:45 235 0 gusting 4 12.8
2020-Jul-09 05:30 193 12.2
2020-Jul-09 05:15 208 11.1
2020-Jul-09 05:00 181 10.6